Temperature
18 18 18 18 18 18 18 18 18 18 18 18 18 18 18 18 18 18 17 17 17 17 17 17 16 16 16 16 16 16 16 15 15 15 15 15 15 14
18 18 18 18 18 18 18 18 17 17 17 18 18 18 18 18 17 17 17 17 17 17 17 17 16 16 16 16 16 16 15 15 15 15 15 15 14 14
18 18 18 18 18 18 18 17 17 17 17 17 17 17 17 17 17 17 17 17 16 16 16 16 16 16 16 15 15 15 15 15 15 14 14 14 14 14
18 18 18 17 17 17 17 17 17 17 17 17 17 17 17 17 17 16 16 16 16 16 16 16 15 15 15 15 15 15 15 15 14 14 14 14 14 13
17 17 17 17 17 17 17 17 17 17 17 17 17 17 17 16 16 16 16 16 16 16 15 15 15 15 15 15 15 14 14 14 14 14 14 14 13 13
17 17 17 17 17 17 17 17 17 16 16 16 16 16 16 16 16 16 16 16 15 15 15 15 15 15 15 14 14 14 14 14 14 13 13 13 13 13
17 17 17 17 17 17 17 17 16 16 16 16 16 16 16 15 15 15 15 15 15 15 15 15 14 14 14 14 14 14 14 13 13 13 13 13 13 13
17 17 16 17 17 16 16 16 16 16 16 16 16 16 15 15 15 15 15 15 14 14 14 14 14 14 14 14 14 13 13 13 13 13 13 13 12 12
16 16 16 16 16 16 16 16 16 16 16 15 15 15 15 15 15 15 15 14 14 14 14 14 14 14 14 13 13 13 13 13 13 13 12 12 12 12
16 16 16 16 16 16 16 16 16 16 15 15 15 15 15 15 15 14 14 14 14 14 13 13 13 13 13 13 13 13 13 13 12 12 12 12 11 11
16 16 16 16 16 16 15 15 15 15 15 15 15 15 15 15 14 14 14 14 13 13 13 13 13 13 13 13 13 12 12 12 12 12 12 11 11 11
16 16 16 15 15 15 15 15 15 15 15 15 15 14 14 14 14 14 14 13 13 13 13 13 13 12 12 12 12 12 12 12 12 12 11 11 11 11
15 15 15 15 15 15 15 15 14 14 14 14 14 14 14 14 14 13 13 13 13 13 13 12 12 12 12 12 12 12 12 12 11 11 11 11 11 10
15 15 15 15 14 14 14 14 14 14 14 14 13 13 13 13 13 13 13 13 12 12 12 12 12 12 11 11 11 11 11 11 11 11 11 11 10 10
15 14 14 14 14 14 14 14 14 13 13 13 13 13 13 13 13 12 12 12 12 12 12 12 11 11 11 11 11 11 11 11 11 11 10 10 10 10
14 14 14 14 14 13 13 13 13 13 13 13 13 12 12 12 12 12 12 12 12 12 11 11 11 11 11 11 11 11 11 10 10 10 10 10 10 10
13 13 13 13 13 13 13 12 12 12 12 12 12 12 12 11 11 11 11 11 11 11 11 11 10 10 10 10 10 10 10 10 10 10 10 10 10 10
13 13 13 12 12 12 12 12 12 12 12 12 11 11 11 11 11 11 10 10 10 10 10 10 10 10 10 10 10 10 10 10 10 10 9 9 10 9
12 12 12 12 12 12 12 11 11 11 11 11 11 11 11 10 10 10 10 10 9 9 9 9 9 9 9 9 9 9 9 9 9 9 9 9 9 9
12 12 12 12 12 11 11 11 11 11 11 10 10 10 10 10 10 9 9 9 9 9 9 9 9 9 9 9 9 9 9 9 9 9 9 9 9 9
12 12 12 11 11 11 11 11 11 10 10 10 10 10 9 9 9 9 9 9 9 8 8 8 8 8 8 8 8 8 9 8 8 8 8 8 8 8
11 11 11 11 11 11 11 11 10 10 10 10 9 9 9 9 9 9 8 8 8 8 8 8 8 8 8 8 8 8 8 8 8 8 8 8 8 8
11 11 11 11 11 11 10 10 10 10 10 9 9 9 9 9 8 8 8 8 8 8 8 8 8 7 7 7 7 7 7 8 8 8 8 8 7 7
Wind_Speed
4 4 3 3 3 3 3 3 3 2 3 3 2 2 2 4 6 6 7 9 10 10 10 10 9 9 8 7 6 6 5 5 5 5 6 6 6 6
4 3 3 3 3 2 2 3 3 4 3 3 3 2 2 2 4 5 6 7 9 10 9 10 9 9 9 8 7 6 6 6 5 5 5 5 6 6
5 4 5 4 3 3 2 1 2 2 3 4 2 1 1 1 1 3 4 5 6 9 9 9 9 9 9 8 7 7 7 6 6 5 5 5 5 5
6 5 6 4 4 4 2 2 2 2 3 3 2 1 1 2 2 2 3 3 4 7 8 8 8 8 8 8 8 7 7 7 6 5 5 5 5 5
6 6 6 5 5 4 3 3 2 2 2 2 3 2 1 1 0 1 1 1 2 4 5 6 7 7 7 7 8 8 8 7 7 6 6 6 6 6
6 7 7 6 6 5 4 4 3 2 1 1 2 2 1 1 1 1 1 1 1 2 3 4 5 6 7 7 7 8 8 7 7 7 7 7 6 6
6 6 7 7 7 6 4 4 3 2 2 2 2 1 1 1 2 2 1 1 2 1 1 2 2 3 4 6 8 8 8 8 8 8 7 7 7 6
7 7 7 6 6 6 6 5 5 4 4 3 3 3 3 3 2 2 1 0 2 2 1 2 2 2 3 6 8 9 9 9 8 8 7 6 6 5
7 6 6 6 5 4 4 4 4 5 6 5 5 5 4 4 3 2 2 2 3 3 1 2 2 3 4 6 9 9 9 9 9 8 7 6 6 5
6 7 7 6 5 5 4 2 2 3 4 4 5 6 5 5 5 4 4 2 2 2 2 2 2 3 3 4 8 9 9 9 8 8 7 7 6 6
6 6 6 6 8 7 5 4 3 3 3 4 5 5 6 6 5 2 2 2 2 2 1 2 2 2 2 3 5 7 8 9 9 8 7 7 7 6
4 5 7 8 9 8 6 6 5 5 3 2 2 3 2 3 4 5 5 4 2 2 2 2 2 0 2 2 2 3 4 7 8 8 8 7 6 4
4 4 4 7 9 9 8 7 8 6 4 3 2 2 2 1 2 3 4 5 4 4 4 3 2 2 2 2 2 2 2 2 3 4 5 6 6 5
4 4 4 6 7 8 7 7 7 5 3 2 2 2 2 2 3 2 3 4 4 5 5 4 3 4 3 2 3 2 1 2 2 2 2 3 5 7
4 5 5 6 5 5 6 7 6 4 3 3 3 3 3 3 2 0 1 1 1 1 2 3 3 3 3 3 3 2 2 2 2 2 2 2 3 2
2 2 3 3 3 3 2 3 4 4 4 4 4 2 1 1 1 0 0 0 1 3 3 1 3 3 2 3 3 3 3 2 2 3 3 2 3 3
2 1 1 1 1 1 1 2 2 2 3 3 3 2 2 1 0 0 0 1 0 1 3 3 1 1 2 3 2 3 3 2 3 2 2 2 3 4
4 2 3 3 4 4 3 2 2 2 2 3 3 3 3 2 1 0 1 1 0 1 1 1 2 2 3 2 2 3 2 2 2 2 2 2 3 3
3 3 4 4 4 3 3 3 3 3 2 2 3 3 2 2 2 2 1 1 1 0 1 1 1 1 1 3 4 2 2 2 1 1 2 3 3 4
4 4 4 4 4 4 4 4 3 2 2 2 3 3 3 2 2 2 2 2 1 1 1 1 0 1 2 3 3 3 2 1 1 2 2 2 2 3
5 5 5 4 4 4 5 4 4 4 3 3 3 3 3 3 3 3 3 3 2 1 2 2 3 3 1 1 1 3 3 3 3 2 2 1 2 2
5 5 5 5 5 5 5 5 4 4 4 4 3 3 3 4 4 4 3 3 2 2 2 2 2 1 0 0 2 3 4 4 4 4 5 5 3 3
5 5 4 4 4 4 4 5 5 5 5 4 4 4 3 3 3 3 3 3 2 2 1 1 1 1 1 2 2 3 4 3 2 3 4 6 7 9
Wind_Direction
234 236 235 243 228 222 208 189 186 242 274 272 275 269 226 213 211 205 205 209 211 210 209 212 214 214 214 216 222 231 239 244 251 256 261 267 273 278
237 241 249 247 244 237 224 209 192 194 240 260 250 267 237 223 213 206 213 209 208 208 210 211 212 214 216 219 223 229 237 242 248 254 260 265 268 275
248 238 247 245 242 243 236 223 208 185 228 270 262 292 285 263 233 223 220 204 207 210 214 215 214 215 217 220 225 228 232 237 241 247 255 259 265 272
243 241 248 247 241 242 230 232 229 207 203 250 276 288 269 238 218 217 211 208 205 212 213 213 213 216 218 222 227 227 230 235 238 243 251 259 265 269
234 236 243 238 240 240 230 234 235 227 197 212 256 274 276 241 11 277 236 223 213 220 215 212 212 217 221 227 227 226 229 233 235 239 247 258 266 272
229 231 234 229 232 233 232 231 226 223 213 215 249 275 277 281 157 226 307 303 267 234 222 220 222 226 228 229 225 225 229 232 236 243 249 254 260 267
234 234 234 228 230 227 227 213 201 205 215 223 244 260 272 267 229 220 244 285 289 233 229 245 221 224 227 227 225 227 227 229 235 241 248 253 258 263
234 237 238 233 235 228 225 212 195 202 211 214 228 237 244 235 225 216 209 248 279 248 172 256 204 235 230 221 225 228 230 232 236 240 243 247 253 255
230 232 239 235 216 213 224 229 234 230 210 203 219 230 225 220 204 221 227 222 242 239 180 260 245 245 242 234 229 228 232 237 239 241 245 250 255 249
230 225 224 226 219 195 197 218 247 257 241 221 220 230 228 217 202 203 214 227 278 267 180 223 252 247 249 239 235 232 237 242 243 243 246 246 244 247
239 229 214 219 226 204 189 208 241 268 275 247 236 239 234 222 198 167 175 167 269 275 231 186 247 269 275 264 253 240 243 246 245 242 244 244 241 241
253 244 227 219 220 206 194 197 219 240 247 287 292 289 263 237 210 190 188 195 219 250 236 178 220 221 296 277 264 252 249 255 252 249 245 244 237 218
245 248 243 227 219 216 205 205 217 215 212 223 248 275 284 258 230 211 199 194 208 238 223 179 198 204 216 265 287 263 244 251 247 251 248 244 233 209
234 239 241 234 225 217 214 218 212 199 190 198 215 238 249 255 257 242 231 224 224 231 219 192 202 204 205 238 263 270 265 257 236 234 221 230 234 234
238 238 236 227 221 221 221 211 195 190 188 197 216 232 236 233 234 273 338 358 349 291 222 204 199 209 199 215 237 239 260 270 234 232 230 222 222 218
263 252 232 218 211 213 211 209 202 197 194 200 208 221 233 203 194 174 238 343 7 331 322 264 187 188 222 230 220 236 232 233 244 234 227 238 232 217
180 164 164 176 208 216 223 222 219 215 211 206 194 200 207 194 211 31 82 67 56 309 324 339 352 160 213 211 223 240 234 238 232 221 213 245 255 240
159 183 204 209 212 209 209 214 217 224 218 201 191 190 189 189 190 101 100 109 105 288 294 317 7 20 12 340 243 219 228 239 251 233 200 220 263 264
179 207 212 214 218 210 202 200 214 221 203 187 192 189 179 179 179 182 171 151 168 256 291 322 41 79 348 301 300 250 208 244 242 247 232 224 245 261
209 215 217 212 209 210 209 207 203 194 185 195 199 189 183 181 180 190 193 190 196 218 296 315 276 229 227 247 264 287 262 230 236 247 250 253 265 280
221 223 218 210 211 213 214 208 195 190 190 189 195 194 189 182 192 198 200 197 187 201 226 249 256 269 273 44 340 309 303 277 246 248 239 249 282 288
220 219 220 218 214 211 210 201 195 195 192 191 193 191 191 187 191 196 197 201 215 219 236 256 277 309 39 226 266 287 300 312 316 303 264 232 216 225
220 218 216 219 219 211 206 202 197 198 195 189 192 189 187 191 200 199 199 198 202 217 243 277 306 309 264 242 254 274 287 295 310 327 316 298 264 255
Height
1548 1548 1548 1548 1547 1547 1547 1546 1546 1543 1542 1542 1542 1541 1541 1540 1540 1539 1539 1539 1538 1538 1538 1537 1537 1537 1536 1536 1535 1534 1533 1533 1532 1531 1530 1530 1529 1528
1545 1545 1545 1545 1544 1544 1543 1543 1543 1542 1540 1540 1539 1539 1538 1537 1537 1537 1536 1536 1536 1535 1535 1535 1534 1534 1533 1533 1532 1531 1530 1529 1529 1528 1527 1526 1526 1525
1543 1542 1542 1542 1541 1541 1540 1540 1539 1539 1538 1537 1537 1536 1535 1535 1534 1534 1534 1533 1533 1532 1533 1532 1531 1531 1531 1530 1529 1528 1527 1527 1526 1525 1524 1523 1522 1521
1539 1539 1539 1539 1538 1537 1537 1536 1536 1536 1535 1534 1533 1533 1532 1531 1531 1531 1530 1530 1530 1530 1529 1529 1529 1529 1528 1527 1527 1526 1525 1524 1523 1522 1521 1520 1519 1518
1535 1535 1535 1535 1534 1534 1533 1533 1533 1532 1532 1531 1530 1530 1529 1528 1528 1528 1528 1527 1527 1526 1526 1526 1526 1526 1525 1525 1524 1523 1522 1521 1520 1519 1518 1518 1517 1515
1530 1530 1531 1530 1530 1530 1529 1529 1529 1529 1528 1528 1527 1526 1526 1525 1525 1524 1524 1524 1523 1523 1523 1523 1523 1523 1522 1522 1521 1520 1519 1518 1517 1516 1515 1515 1514 1513
1525 1525 1526 1526 1526 1526 1525 1525 1525 1525 1525 1524 1523 1522 1522 1521 1521 1521 1521 1520 1520 1520 1520 1520 1519 1519 1519 1518 1518 1517 1516 1515 1514 1513 1512 1511 1511 1510
1519 1520 1521 1521 1521 1521 1521 1521 1521 1521 1520 1520 1520 1519 1518 1518 1518 1518 1517 1517 1516 1517 1516 1516 1516 1515 1515 1515 1514 1514 1513 1512 1511 1510 1509 1508 1507 1506
1514 1515 1516 1516 1517 1517 1517 1517 1517 1517 1517 1517 1516 1515 1515 1515 1514 1514 1514 1514 1513 1513 1513 1512 1512 1512 1512 1511 1511 1510 1509 1508 1507 1506 1506 1505 1504 1503
1509 1510 1511 1511 1512 1512 1512 1512 1512 1512 1513 1512 1512 1512 1512 1512 1511 1511 1511 1510 1510 1510 1510 1509 1508 1508 1508 1508 1507 1507 1506 1505 1504 1503 1502 1501 1501 1500
1505 1505 1506 1506 1507 1507 1508 1507 1507 1508 1508 1508 1508 1508 1508 1507 1507 1507 1507 1506 1506 1506 1506 1506 1505 1504 1504 1504 1503 1503 1502 1502 1501 1500 1499 1498 1497 1496
1500 1500 1501 1501 1502 1502 1503 1503 1503 1503 1503 1504 1504 1503 1503 1503 1503 1503 1503 1502 1501 1501 1502 1502 1501 1501 1500 1500 1499 1499 1498 1498 1497 1496 1495 1495 1494 1493
1494 1494 1495 1495 1496 1497 1497 1498 1498 1499 1499 1499 1499 1499 1499 1499 1499 1499 1499 1499 1498 1497 1498 1498 1497 1497 1497 1495 1495 1495 1495 1494 1493 1492 1491 1491 1490 1489
1489 1489 1489 1490 1491 1491 1492 1493 1494 1494 1494 1495 1495 1495 1495 1495 1495 1495 1495 1495 1494 1494 1494 1494 1493 1493 1492 1491 1491 1490 1490 1490 1489 1488 1487 1486 1485 1485
1484 1484 1484 1485 1485 1486 1487 1488 1488 1489 1489 1489 1490 1490 1491 1491 1491 1491 1491 1491 1490 1490 1490 1489 1489 1488 1488 1487 1487 1486 1486 1485 1485 1484 1483 1482 1481 1480
1479 1479 1480 1480 1480 1481 1482 1483 1483 1484 1484 1485 1485 1486 1486 1487 1487 1487 1486 1486 1486 1485 1486 1485 1485 1484 1484 1484 1483 1482 1482 1481 1481 1480 1479 1478 1477 1476
1475 1475 1475 1475 1475 1476 1477 1478 1478 1479 1479 1480 1480 1481 1482 1482 1482 1482 1482 1482 1481 1481 1480 1481 1481 1480 1480 1480 1479 1478 1478 1477 1476 1476 1475 1473 1473 1472
1471 1470 1470 1470 1471 1471 1472 1473 1474 1474 1474 1475 1475 1476 1476 1477 1478 1478 1479 1478 1478 1477 1477 1477 1477 1476 1476 1476 1476 1474 1474 1473 1472 1472 1471 1470 1469 1469
1466 1466 1466 1466 1466 1467 1467 1468 1469 1470 1471 1471 1471 1471 1472 1473 1473 1474 1474 1474 1474 1474 1475 1474 1473 1473 1472 1471 1471 1472 1470 1469 1468 1468 1467 1466 1465 1465
1461 1461 1461 1462 1462 1462 1463 1464 1465 1466 1467 1467 1467 1467 1468 1469 1469 1469 1470 1470 1470 1470 1471 1471 1471 1470 1470 1469 1468 1467 1468 1466 1465 1464 1463 1463 1462 1462
1457 1457 1457 1457 1458 1458 1459 1459 1460 1461 1462 1463 1462 1463 1464 1465 1465 1466 1467 1467 1467 1467 1467 1467 1468 1468 1467 1466 1465 1464 1464 1463 1462 1461 1460 1459 1458 1457
1452 1452 1452 1453 1454 1454 1454 1454 1455 1456 1457 1458 1458 1459 1460 1460 1461 1462 1462 1462 1462 1463 1464 1464 1464 1464 1463 1462 1461 1460 1460 1459 1459 1458 1458 1457 1456 1454
1447 1448 1448 1448 1449 1449 1449 1450 1451 1451 1452 1453 1454 1455 1456 1456 1457 1458 1458 1458 1459 1459 1460 1460 1460 1460 1460 1459 1458 1457 1457 1456 1455 1454 1454 1454 1453 1452